Hourly Data Report for June 08, 2021

TORONTO CITY
ONTARIO
Current Station Operator: ECCC - MSC

43°40'00.000" N
79°24'00.000" W
112.50 m
6158355
71508
XTO

Download Data

Hourly Data (June 2021)
Hourly Data Report for June 8, 2021
TIME
LST
Temp Definition
°C
Dew Point Definition
°C
Rel Hum Definition
%
Precip. Amount Definition
mm

Wind Dir Definition
10's deg

Wind Spd Definition
km/h
Visibility Definition
km
Stn Press Definition
kPa
Hmdx Definition


Wind Chill Definition


Weather Definition


00:00 24.1 17.8 68 0.0       100.23 30   LegendNANA
01:00 23.3 17.2 69 0.0       100.24 29   LegendNANA
02:00 23.5 17.7 70 0.0       100.28 29   LegendNANA
03:00 21.3 17.2 78 0.0       100.32 27   LegendNANA
04:00 20.6 17.5 82 0.0       100.32 26   LegendNANA
05:00 20.5 18.6 89 0.4       100.36 27   LegendNANA
06:00 20.5 19.7 95 3.1       100.34 28   LegendNANA
07:00 21.6 20.8 95 0.1       100.37 30   LegendNANA
08:00 20.5 19.2 92 0.0       100.42 27   LegendNANA
09:00 21.6 20.3 92 0.0       100.43 29   LegendNANA
10:00 21.3 20.1 93 0.0       100.45 29   LegendNANA
11:00 21.6 20.6 94 0.8       100.46 30   LegendNANA
12:00 23.3 21.5 90 0.6       100.39 32   LegendNANA
13:00 25.2 21.0 78 0.0       100.34 34   LegendNANA
14:00 25.8 21.7 78 0.0       100.30 35   LegendNANA
15:00 25.7 20.8 75 0.0       100.25 34   LegendNANA
16:00 24.3 20.7 80 0.0       100.23 32   LegendNANA
17:00 24.1 20.7 81 0.0       100.27 32   LegendNANA
18:00 23.1 20.7 86 0.0       100.25 31   LegendNANA
19:00 23.5 20.3 82 0.0       100.21 31   LegendNANA
20:00 20.6 19.2 92 0.0       100.23 28   LegendNANA
21:00 21.5 20.3 93 0.0       100.27 29   LegendNANA
22:00 22.0 20.7 93 0.0       100.30 30   LegendNANA
23:00 21.6 19.4 87 0.0       100.31 29   LegendNANA

Notes on Data Quality.

Legend

  • E = Estimated
  • M = Missing
  • NA = Not Available*
  • [empty] = Indicates an unobserved value
Date modified: